Voltar ao catálogo

FENGYUN 1C DEB

AtivoSSO
NORAD 32143·DEBRIS·🇨🇳 China

Lançado May 10, 1999 de Taiyuan Satellite Launch Center

Loading…

Próximas Passagens (próximas 24 horas)

TLE

AtualizadoSource: Space-Track

Época: Sep 14, 2026, 04:00 UTC

1 32143U 99025CSM 26257.16735713  .00000242  00000-0  13128-3 0  9999
2 32143  98.6280 231.0274 0104001  36.0818 324.7319 14.18175000998371

Acompanhe FENGYUN 1C DEB em tempo real com AllMySat

Download on the App Store